Tampa, FL

11:32 AM EDT on April 23, 2018 (GMT -0400)
Tampa International

Weather History for KTPA - January, 2013

Change the Weather History Date:

Saturday, January 26, 2013

  Actual Average Record
Temperature  
Mean Temperature 65 °F 61 °F  
Max Temperature 76 °F 70 °F 84 °F (1950)
Min Temperature 53 °F 52 °F 23 °F (1905)
Degree Days  
Heating Degree Days 0 5  
Month to date heating degree days 46 155  
Since 1 July heating degree days 172 338  
Cooling Degree Days 0 2  
Month to date cooling degree days 98 50  
Year to date cooling degree days 98 50  
Growing Degree Days 14 (Base 50)    
Moisture  
Dew Point 54 °F    
Average Humidity 68    
Maximum Humidity 93    
Minimum Humidity 43    
Precipitation  
Precipitation 0.00 in 0.08 in 0.95 in (1980)
Month to date precipitation 0.49 1.82  
Year to date precipitation 0.49 1.82  
Sea Level Pressure  
Sea Level Pressure 30.24 in    
Wind  
Wind Speed 4 mph (NW)    
Max Wind Speed 14 mph    
Max Gust Speed 18 mph    
Visibility 9 miles    
Events Fog    
T = Trace of Precipitation, MM = Missing Value Source: NWS Daily Summary

Daily Weather History Graph

Daily Weather History Graph

Search for Another Location

Airport or City:

Astronomy

Jan. 26, 2013 Rise Set
Actual Time 7:19 AM EST 6:05 PM EST
Civil Twilight 6:55 AM EST 6:30 PM EST
Nautical Twilight 6:26 AM EST 6:59 PM EST
Astronomical Twilight 5:58 AM EST 7:26 PM EST
Moon 5:55 PM EST (1/26) 6:39 AM EST (1/26)
Length of Visible Light 11h 35m
Length of Day
10h 46m
Full, 100% of the Moon is Illuminated
Jan 26
Full
Jan 26
Full
Feb 3
Last Quarter
Feb 10
New
Feb 17
First Quarter

Hourly Weather History & Observations

Time (EST) Temp. Dew Point Humidity Pressure Visibility Wind Dir Wind Speed Gust Speed Precip Events Conditions
12:53 AM 55.0 °F 52.0 °F 89% 30.25 in 6.0 mi NNW 4.6 mph - N/A   Clear
1:53 AM 57.0 °F 54.0 °F 89% 30.25 in 8.0 mi North 3.5 mph - N/A   Clear
2:53 AM 57.0 °F 54.0 °F 89% 30.23 in 9.0 mi Calm Calm - N/A   Clear
3:53 AM 54.0 °F 52.0 °F 93% 30.22 in 8.0 mi Calm Calm - N/A   Clear
4:53 AM 54.0 °F 51.1 °F 90% 30.23 in 10.0 mi Calm Calm - N/A   Clear
5:53 AM 55.0 °F 51.1 °F 86% 30.23 in 9.0 mi Calm Calm - N/A   Clear
6:53 AM 54.0 °F 51.1 °F 90% 30.25 in 8.0 mi Calm Calm - N/A   Clear
7:53 AM 55.0 °F 52.0 °F 89% 30.27 in 7.0 mi Calm Calm - N/A Fog Shallow Fog
8:53 AM 61.0 °F 55.0 °F 81% 30.28 in 7.0 mi Calm Calm - N/A   Clear
9:53 AM 64.0 °F 57.0 °F 78% 30.30 in 10.0 mi Calm Calm - N/A   Clear
10:53 AM 68.0 °F 55.0 °F 63% 30.30 in 10.0 mi West 4.6 mph - N/A   Partly Cloudy
11:53 AM 68.0 °F 55.9 °F 65% 30.28 in 10.0 mi SW 5.8 mph - N/A   Scattered Clouds
12:53 PM 70.0 °F 55.9 °F 61% 30.26 in 10.0 mi SW 6.9 mph - N/A   Mostly Cloudy
1:53 PM 71.1 °F 55.0 °F 57% 30.22 in 10.0 mi WSW 11.5 mph - N/A   Scattered Clouds
2:53 PM 75.0 °F 52.0 °F 44% 30.20 in 10.0 mi North 8.1 mph - N/A   Partly Cloudy
3:53 PM 73.9 °F 53.1 °F 48% 30.19 in 10.0 mi NNW 10.4 mph - N/A   Partly Cloudy
4:53 PM 72.0 °F 54.0 °F 53% 30.20 in 10.0 mi NW 10.4 mph - N/A   Partly Cloudy
5:53 PM 68.0 °F 54.0 °F 61% 30.22 in 10.0 mi NW 10.4 mph - N/A   Partly Cloudy
6:53 PM 64.9 °F 54.0 °F 68% 30.22 in 10.0 mi NW 4.6 mph - N/A   Partly Cloudy
7:53 PM 63.0 °F 55.0 °F 75% 30.23 in 10.0 mi NW 4.6 mph - N/A   Partly Cloudy
8:53 PM 62.1 °F 55.0 °F 78% 30.24 in 10.0 mi Calm Calm - N/A   Partly Cloudy
9:53 PM 61.0 °F 55.9 °F 83% 30.25 in 10.0 mi Calm Calm - N/A   Clear
10:53 PM 60.1 °F 55.9 °F 86% 30.26 in 8.0 mi Calm Calm - N/A   Clear
11:53 PM 59.0 °F 55.9 °F 90% 30.25 in 7.0 mi Calm Calm - N/A   Clear